Weather History for Lexington, KY

Change the Weather History Date:

Sunday, December 9, 2012

  Actual Average Record
Temperature  
Mean Temperature 55 °F 37 °F  
Max Temperature 60 °F 45 °F 68 °F (1952)
Min Temperature 50 °F 29 °F -9 °F (1917)
Degree Days  
Heating Degree Days 10 28  
Month to date heating degree days 105 237  
Since 1 July heating degree days 1167 1124  
Cooling Degree Days 0 0  
Month to date cooling degree days 0 0  
Year to date cooling degree days 1359 1190  
Growing Degree Days 5 (Base 50)    
Moisture  
Dew Point 55 °F    
Average Humidity 95    
Maximum Humidity 100    
Minimum Humidity 90    
Precipitation  
Precipitation 0.70 in 0.14 in 1.53 in (1966)
Month to date precipitation 2.69 1.18  
Year to date precipitation 38.76 42.42  
Snow  
Snow 0.00 in 0.10 in 1.30 in (1961)
Month to date snowfall 0.0 0.5  
Since 1 July snowfall 0.0 0.8  
Snow Depth 0.00 in    
Sea Level Pressure  
Sea Level Pressure 29.91 in    
Wind  
Wind Speed 10 mph (SE)    
Max Wind Speed 22 mph    
Max Gust Speed 26 mph    
Visibility 7 miles    
Events Rain    
T = Trace of Precipitation, MM = Missing Value Source: NWS Daily Summary

Daily Weather History Graph

Daily Weather History Graph

Search for Another Location

Airport:

Trip Planner

Search our weather history database for the weather conditions in past years. The results will help you decide how hot, cold, wet, or windy it might be!

Date:

Astronomy

Dec. 09, 2012 Rise Set
Actual Time 7:43 AM EST 5:18 PM EST
Civil Twilight 7:13 AM EST 5:48 PM EST
Nautical Twilight 6:40 AM EST 6:21 PM EST
Astronomical Twilight 6:08 AM EST 6:53 PM EST
Moon 3:18 AM EST (12/9) 2:22 PM EST (12/9)
Length of Visible Light 10h 34m
Length of Day
9h 35m
Waning Crescent, 19% of the Moon is Illuminated
Dec 9
Waning Crescent
Dec 13
New
Dec 20
First Quarter
Dec 28
Full
Jan 4
Last Quarter

Hourly Weather History & Observations

Time (EST) Temp. Dew Point Humidity Pressure Visibility Wind Dir Wind Speed Gust Speed Precip Events Conditions
12:07 AM 51.8 °F 50.0 °F 94% 30.00 in 3.0 mi NE 6.9 mph - 0.05 in Rain Rain
12:15 AM 51.8 °F 50.0 °F 94% 30.00 in 5.0 mi NE 8.1 mph - 0.05 in Rain Light Rain
12:54 AM 51.1 °F 50.0 °F 96% 30.01 in 3.0 mi NE 4.6 mph - 0.08 in Rain Heavy Rain
1:32 AM 50.0 °F 50.0 °F 100% 29.99 in 4.0 mi East 6.9 mph - 0.04 in Rain Light Rain
1:54 AM 50.0 °F 50.0 °F 100% 29.99 in 6.0 mi East 5.8 mph - 0.05 in   Overcast
2:54 AM 51.1 °F 50.0 °F 96% 29.99 in 5.0 mi ENE 6.9 mph - 0.05 in   Overcast
3:54 AM 51.1 °F 50.0 °F 96% 29.98 in 4.0 mi ENE 5.8 mph - N/A   Overcast
4:30 AM 51.8 °F 51.8 °F 100% 29.98 in 5.0 mi East 3.5 mph - N/A   Overcast
4:54 AM 51.1 °F 51.1 °F 100% 29.98 in 4.0 mi East 4.6 mph - N/A   Overcast
5:43 AM 51.8 °F 51.8 °F 100% 29.97 in 4.0 mi East 5.8 mph - N/A   Overcast
5:54 AM 52.0 °F 51.1 °F 97% 29.97 in 4.0 mi East 4.6 mph - N/A   Overcast
6:54 AM 52.0 °F 52.0 °F 100% 29.97 in 6.0 mi ESE 5.8 mph - N/A   Overcast
7:54 AM 53.1 °F 53.1 °F 100% 29.96 in 5.0 mi ESE 6.9 mph - 0.00 in   Overcast
8:47 AM 53.6 °F 53.6 °F 100% 29.96 in 2.0 mi SE 8.1 mph - 0.03 in Rain Light Rain
8:54 AM 53.1 °F 53.1 °F 100% 29.96 in 3.0 mi SSE 6.9 mph - 0.04 in Rain Rain
9:01 AM 53.6 °F 53.6 °F 100% 29.95 in 3.0 mi SE 8.1 mph - 0.02 in Rain Rain
9:08 AM 53.6 °F 53.6 °F 100% 29.96 in 3.0 mi SE 6.9 mph - 0.04 in Rain Rain
9:27 AM 53.6 °F 53.6 °F 100% 29.96 in 2.5 mi SE 8.1 mph - 0.09 in Rain Heavy Rain
9:39 AM 53.6 °F 53.6 °F 100% 29.96 in 3.0 mi SE 9.2 mph - 0.12 in Rain Rain
9:54 AM 54.0 °F 54.0 °F 100% 29.98 in 1.8 mi SSE 11.5 mph - 0.18 in Rain Heavy Rain
10:01 AM 55.4 °F 55.4 °F 100% 29.97 in 1.2 mi SE 9.2 mph - 0.06 in Rain Heavy Rain
10:09 AM 55.4 °F 55.4 °F 100% 29.97 in 3.0 mi SSE 6.9 mph - 0.09 in Rain Rain
10:26 AM 55.4 °F 55.4 °F 100% 29.96 in 7.0 mi SE 8.1 mph - 0.12 in Rain Light Rain
10:45 AM 55.4 °F 55.4 °F 100% 29.95 in 10.0 mi SSE 10.4 mph - 0.12 in Rain Light Rain
10:54 AM 57.0 °F 55.9 °F 96% 29.94 in 10.0 mi SSE 15.0 mph 20.7 mph 0.12 in Rain Light Rain
11:05 AM 57.2 °F 57.2 °F 100% 29.94 in 10.0 mi South 13.8 mph - 0.00 in Rain Light Rain
11:31 AM 57.2 °F 57.2 °F 100% 29.93 in 10.0 mi South 11.5 mph 19.6 mph 0.00 in   Overcast
11:54 AM 57.9 °F 57.0 °F 97% 29.91 in 10.0 mi SSE 12.7 mph - 0.00 in   Mostly Cloudy
12:54 PM 60.1 °F 57.0 °F 90% 29.87 in 10.0 mi South 13.8 mph - 0.00 in   Partly Cloudy
1:54 PM 60.1 °F 57.9 °F 93% 29.86 in 10.0 mi South 12.7 mph - 0.01 in Rain Light Rain
2:54 PM 60.1 °F 57.9 °F 93% 29.86 in 10.0 mi South 11.5 mph - 0.00 in Rain Light Rain
3:54 PM 60.1 °F 57.9 °F 93% 29.86 in 10.0 mi South 11.5 mph - 0.00 in   Overcast
4:29 PM 60.8 °F 57.2 °F 88% 29.87 in 10.0 mi South 12.7 mph - N/A   Overcast
4:41 PM 60.8 °F 57.2 °F 88% 29.87 in 10.0 mi South 10.4 mph - N/A   Overcast
4:54 PM 60.1 °F 57.9 °F 93% 29.86 in 10.0 mi South 11.5 mph - 0.00 in Rain Light Rain
5:14 PM 59.0 °F 57.2 °F 94% 29.86 in 10.0 mi South 11.5 mph - 0.00 in   Overcast
5:25 PM 59.0 °F 57.2 °F 94% 29.86 in 10.0 mi South 10.4 mph - 0.00 in   Overcast
5:54 PM 59.0 °F 57.9 °F 96% 29.84 in 10.0 mi South 11.5 mph - 0.00 in   Overcast
6:54 PM 59.0 °F 57.9 °F 96% 29.83 in 10.0 mi South 10.4 mph - N/A   Mostly Cloudy
7:37 PM 60.8 °F 57.2 °F 88% 29.82 in 10.0 mi South 15.0 mph - 0.00 in   Overcast
7:54 PM 59.0 °F 59.0 °F 100% 29.80 in 10.0 mi South 15.0 mph 21.9 mph 0.00 in Rain Light Rain
8:11 PM 59.0 °F 57.2 °F 94% 29.81 in 7.0 mi South 16.1 mph - 0.03 in Rain Rain
8:54 PM 60.1 °F 57.9 °F 93% 29.79 in 10.0 mi SSW 5.8 mph - 0.08 in   Overcast
9:54 PM 59.0 °F 57.9 °F 96% 29.76 in 10.0 mi South 13.8 mph - 0.09 in Rain Light Rain
10:54 PM 60.1 °F 57.0 °F 90% 29.74 in 10.0 mi South 17.3 mph 24.2 mph 0.01 in   Overcast
11:54 PM 60.1 °F 57.0 °F 90% 29.75 in 10.0 mi SSW 17.3 mph 25.3 mph 0.01 in Rain Light Rain